C/2012 L1 ( LINEAR )

Japanese version
Home page
Updated on September 14, 2013

---------------------------------------------------------------------

* Profile

Discovery Date June 1, 2012
Magnitude 19.0 mag
Discoverer Lincoln Laboratory Near-Earth Asteroid Research project

* Pictures

* Orbital Elements

Epoch 2012 Dec. 19.0 TT = JDT 2456280.5
T 2012 Dec. 25.41492 TT                                 MPC
q   2.2624049            (2000.0)            P               Q
z  +0.0012839      Peri.  140.28996     +0.00726399     -0.05699465
 +/-0.0000008      Node   271.76648     +0.45250701     +0.89049250
e   0.9970952      Incl.   87.21953     +0.89173126     -0.45141413
From 1342 observations 2012 June 1-2013 Mar. 21, mean residual 0".6.

* Finding Charts

* Magnitudes Graph

        m1 = 10.0 + 5 log d + 10.0 log r

---------------------------------------------------------------------

The orbital elements are published on M.P.E.C. 2013-F47.
The charts are made with StellaNavigator Ver.8 (AstroArts).
The magnitudes graphs are made with Comet for Windows.

---------------------------------------------------------------------

Copyright(C) Seiichi Yoshida (comet@aerith.net). All rights reserved.